When you browse on this site, cookies collect data to enhance your experience and personalize the content and advertising you see.
Visit our Privacy Policy to learn more. By continuing to use the site, you agree to this use of cookies and data.
  • In Lithuania
  • List of Countries
  • For 7 days
  • Water Temperature
  • Weather Map
  • Weather Widgets
  • user-avatar
    Login

    Hourly Weather Solden

    Today, 4 June, Thursday

    Time Temperature Precipitation Wind Pressure Humidity
    00:00 +3°C° 0 mm 1 mps 575 mmHg 91%
    01:00 +3°C° 0 mm 1 mps 575 mmHg 93%
    02:00 +3°C° 0 mm 1 mps 574 mmHg 93%
    03:00 +3°C° 0 mm 1 mps 574 mmHg 94%
    04:00 +3°C° 0 mm 1 mps 574 mmHg 95%
    05:00 +3°C° 0.3 mm 1 mps 574 mmHg 95%
    06:00 +4°C° 0.3 mm 1 mps 574 mmHg 95%
    07:00 +3°C° 0 mm 2 mps 574 mmHg 96%
    08:00 +4°C° 0.4 mm 2 mps 574 mmHg 95%
    09:00 +4°C° 0.4 mm 2 mps 574 mmHg 95%
    10:00 +5°C° 0.4 mm 2 mps 574 mmHg 94%
    11:00 +4°C° 0.6 mm 2 mps 574 mmHg 95%
    12:00 +4°C° 0.6 mm 2 mps 574 mmHg 95%
    13:00 +4°C° 0.6 mm 2 mps 573 mmHg 96%
    14:00 +4°C° 0.6 mm 2 mps 573 mmHg 96%
    15:00 +4°C° 0.6 mm 2 mps 573 mmHg 97%
    16:00 +3°C° 0.6 mm 2 mps 572 mmHg 97%
    17:00 +4°C° 1 mm 1 mps 572 mmHg 98%
    18:00 +4°C° 1 mm 1 mps 572 mmHg 98%
    19:00 +4°C° 1 mm 1 mps 572 mmHg 98%
    20:00 +4°C° 1.8 mm 1 mps 571 mmHg 98%
    21:00 +3°C° 1.8 mm 1 mps 571 mmHg 99%
    22:00 +2°C° 1.8 mm 0 mps 571 mmHg 99%
    23:00 +3°C° 3.3 mm 1 mps 571 mmHg 98%

    Tomorrow, 5 June, Friday

    Time Temperature Precipitation Wind Pressure Humidity
    00:00 +2°C° 3.3 mm 1 mps 571 mmHg 98%
    01:00 +1°C° 3.3 mm 2 mps 570 mmHg 98%
    02:00 +1°C° 1.9 mm 2 mps 570 mmHg 97%
    03:00 -1°C° 1.9 mm 2 mps 570 mmHg 97%
    04:00 -1°C° 1.9 mm 2 mps 570 mmHg 96%
    05:00 +1°C° 0.1 mm 2 mps 570 mmHg 95%
    06:00 +1°C° 0.1 mm 2 mps 571 mmHg 93%
    07:00 +3°C° 0.1 mm 1 mps 571 mmHg 92%
    08:00 +3°C° 0.4 mm 1 mps 572 mmHg 90%
    09:00 +4°C° 0.4 mm 1 mps 572 mmHg 88%
    10:00 +5°C° 0.4 mm 1 mps 573 mmHg 86%
    11:00 +6°C° 0.2 mm 1 mps 573 mmHg 83%
    12:00 +7°C° 0.2 mm 1 mps 574 mmHg 80%
    13:00 +7°C° 0.2 mm 1 mps 574 mmHg 76%
    14:00 +8°C° 0.2 mm 1 mps 575 mmHg 75%
    15:00 +8°C° 0.2 mm 1 mps 575 mmHg 74%
    16:00 +8°C° 0.2 mm 1 mps 575 mmHg 73%
    17:00 +7°C° 0.1 mm 0 mps 575 mmHg 77%
    18:00 +6°C° 0.1 mm 0 mps 575 mmHg 80%
    19:00 +6°C° 0.1 mm 0 mps 575 mmHg 84%
    20:00 +5°C° 0 mm 1 mps 575 mmHg 86%
    21:00 +4°C° 0 mm 1 mps 575 mmHg 88%
    22:00 +2°C° 0 mm 1 mps 574 mmHg 90%
    23:00 +2°C° 0 mm 1 mps 575 mmHg 89%

    Day after tomorrow, 6 June, Saturday

    Time Temperature Precipitation Wind Pressure Humidity
    00:00 +2°C° 0 mm 1 mps 575 mmHg 89%
    01:00 +1°C° 0 mm 0 mps 575 mmHg 88%
    02:00 +2°C° 0 mm 1 mps 575 mmHg 88%
    03:00 +3°C° 0 mm 1 mps 575 mmHg 88%
    04:00 +3°C° 0 mm 1 mps 575 mmHg 88%
    05:00 +3°C° 0 mm 1 mps 576 mmHg 88%
    06:00 +4°C° 0 mm 1 mps 576 mmHg 89%
    07:00 +5°C° 0 mm 1 mps 577 mmHg 89%
    08:00 +6°C° 0.1 mm 1 mps 577 mmHg 89%
    09:00 +6°C° 0.1 mm 1 mps 577 mmHg 89%
    10:00 +6°C° 0.1 mm 2 mps 578 mmHg 88%
    11:00 +7°C° 0.4 mm 2 mps 578 mmHg 86%
    12:00 +7°C° 0.4 mm 2 mps 578 mmHg 84%
    13:00 +8°C° 0.4 mm 2 mps 579 mmHg 82%
    14:00 +8°C° 0.7 mm 2 mps 578 mmHg 84%
    15:00 +8°C° 0.7 mm 2 mps 578 mmHg 87%
    16:00 +8°C° 0.7 mm 2 mps 578 mmHg 89%
    17:00 +7°C° 0.7 mm 2 mps 578 mmHg 91%
    18:00 +8°C° 0.7 mm 1 mps 578 mmHg 94%
    19:00 +7°C° 0.7 mm 1 mps 578 mmHg 96%
    20:00 +6°C° 0.3 mm 1 mps 577 mmHg 96%
    21:00 +5°C° 0.3 mm 1 mps 577 mmHg 96%
    22:00 +4°C° 0.3 mm 1 mps 577 mmHg 97%
    23:00 +4°C° 0.1 mm 1 mps 577 mmHg 96%

    7 June, Sunday

    Time Temperature Precipitation Wind Pressure Humidity
    00:00 +4°C° 0.1 mm 1 mps 577 mmHg 96%
    01:00 +4°C° 0.1 mm 1 mps 577 mmHg 96%
    02:00 +3°C° 0.5 mm 0 mps 577 mmHg 96%
    03:00 +3°C° 0.5 mm 0 mps 577 mmHg 97%
    04:00 +3°C° 0.5 mm 0 mps 577 mmHg 97%
    05:00 +4°C° 0.5 mm 0 mps 577 mmHg 97%
    06:00 +4°C° 0.5 mm 0 mps 578 mmHg 97%
    07:00 +4°C° 0.5 mm 0 mps 578 mmHg 98%
    08:00 +6°C° 0.5 mm 1 mps 578 mmHg 96%
    09:00 +7°C° 0.5 mm 1 mps 579 mmHg 94%
    10:00 +7°C° 0.5 mm 1 mps 580 mmHg 93%
    11:00 +7°C° 1.4 mm 1 mps 580 mmHg 94%
    12:00 +7°C° 1.4 mm 1 mps 579 mmHg 96%
    13:00 +6°C° 1.4 mm 2 mps 579 mmHg 97%
    14:00 +6°C° 1.7 mm 1 mps 579 mmHg 97%
    15:00 +6°C° 1.7 mm 1 mps 579 mmHg 97%
    16:00 +6°C° 1.7 mm 1 mps 579 mmHg 97%
    17:00 +5°C° 3.6 mm 1 mps 578 mmHg 97%
    18:00 +5°C° 3.6 mm 1 mps 578 mmHg 98%
    19:00 +4°C° 3.6 mm 1 mps 578 mmHg 98%
    20:00 +4°C° 2.5 mm 1 mps 578 mmHg 98%
    21:00 +4°C° 2.5 mm 1 mps 578 mmHg 98%
    22:00 +3°C° 2.5 mm 1 mps 578 mmHg 98%
    23:00 +3°C° 2.3 mm 1 mps 577 mmHg 98%

    8 June, Monday

    Time Temperature Precipitation Wind Pressure Humidity
    00:00 +3°C° 2.3 mm 1 mps 577 mmHg 98%
    01:00 +3°C° 2.3 mm 1 mps 577 mmHg 98%
    02:00 +3°C° 1.6 mm 1 mps 577 mmHg 98%
    03:00 +3°C° 1.6 mm 1 mps 577 mmHg 98%
    04:00 +3°C° 1.6 mm 1 mps 577 mmHg 97%
    05:00 +3°C° 2.7 mm 1 mps 577 mmHg 97%
    06:00 +3°C° 2.7 mm 1 mps 577 mmHg 98%
    07:00 +2°C° 2.7 mm 1 mps 577 mmHg 98%
    08:00 +3°C° 1.2 mm 1 mps 577 mmHg 97%
    09:00 +3°C° 1.2 mm 1 mps 577 mmHg 97%
    10:00 +3°C° 1.2 mm 1 mps 578 mmHg 97%
    11:00 +4°C° 0.2 mm 1 mps 578 mmHg 95%
    12:00 +4°C° 0.2 mm 1 mps 578 mmHg 94%
    13:00 +5°C° 0.2 mm 1 mps 578 mmHg 93%
    14:00 +5°C° 0.6 mm 1 mps 578 mmHg 89%
    15:00 +6°C° 0.6 mm 1 mps 579 mmHg 86%
    16:00 +6°C° 0.6 mm 1 mps 579 mmHg 83%
    17:00 +6°C° 0.3 mm 1 mps 579 mmHg 85%
    18:00 +6°C° 0.3 mm 1 mps 579 mmHg 87%
    19:00 +5°C° 0.3 mm 1 mps 579 mmHg 89%
    20:00 +4°C° 0.4 mm 1 mps 579 mmHg 91%
    21:00 +4°C° 0.4 mm 1 mps 579 mmHg 93%
    22:00 +3°C° 0.4 mm 1 mps 579 mmHg 95%
    23:00 +3°C° 0.2 mm 1 mps 579 mmHg 94%

    9 June, Tuesday

    Time Temperature Precipitation Wind Pressure Humidity
    00:00 +3°C° 0.2 mm 1 mps 579 mmHg 94%
    01:00 +3°C° 0.2 mm 1 mps 579 mmHg 93%
    02:00 +3°C° 0.1 mm 1 mps 579 mmHg 94%
    03:00 +2°C° 0.1 mm 1 mps 579 mmHg 94%
    04:00 +2°C° 0.1 mm 1 mps 579 mmHg 94%
    05:00 +3°C° 0.1 mm 1 mps 579 mmHg 92%
    06:00 +4°C° 0.1 mm 1 mps 580 mmHg 89%
    07:00 +4°C° 0.1 mm 0 mps 580 mmHg 86%
    08:00 +5°C° 0.1 mm 0 mps 581 mmHg 81%
    09:00 +8°C° 0.1 mm 1 mps 582 mmHg 75%
    10:00 +9°C° 0.1 mm 1 mps 583 mmHg 69%
    11:00 +10°C° 0.3 mm 1 mps 583 mmHg 68%
    12:00 +10°C° 0.3 mm 1 mps 583 mmHg 67%
    13:00 +11°C° 0.3 mm 1 mps 583 mmHg 66%
    14:00 +10°C° 0.6 mm 1 mps 583 mmHg 70%
    15:00 +10°C° 0.6 mm 1 mps 582 mmHg 73%
    16:00 +9°C° 0.6 mm 1 mps 582 mmHg 77%
    17:00 +9°C° 0.7 mm 1 mps 582 mmHg 82%
    18:00 +8°C° 0.7 mm 1 mps 582 mmHg 87%
    19:00 +6°C° 0.7 mm 0 mps 582 mmHg 92%
    20:00 +6°C° 0.4 mm 1 mps 582 mmHg 93%
    21:00 +5°C° 0.4 mm 1 mps 582 mmHg 94%
    22:00 +4°C° 0.4 mm 1 mps 581 mmHg 94%
    23:00 +3°C° 0.1 mm 1 mps 581 mmHg 94%
    Show more